Year,Month,Day,Hour,Minute,Value (Times are PST for temperature in C)
2013,07,31,09,48,18.10
2013,07,31,09,49,18.10
2013,07,31,09,50,18.20
2013,07,31,09,51,18.20
2013,07,31,09,52,18.20
2013,07,31,09,53,18.30
2013,07,31,09,54,18.40
2013,07,31,09,55,18.40
2013,07,31,09,56,18.50
2013,07,31,09,57,18.60
2013,07,31,09,58,18.70
2013,07,31,09,59,18.80
2013,07,31,10,00,18.90
2013,07,31,10,01,18.90
2013,07,31,10,02,19.00
2013,07,31,10,03,19.00
2013,07,31,10,04,18.90
2013,07,31,10,05,18.90
2013,07,31,10,06,18.80
2013,07,31,10,07,18.70
2013,07,31,10,08,18.60
2013,07,31,10,09,18.60
2013,07,31,10,10,18.60
2013,07,31,10,11,18.50
2013,07,31,10,12,18.40
2013,07,31,10,13,18.50
2013,07,31,10,14,18.50
2013,07,31,10,15,18.50
2013,07,31,10,16,18.60
2013,07,31,10,17,18.60
2013,07,31,10,18,18.60
2013,07,31,10,19,18.60
2013,07,31,10,20,18.50
2013,07,31,10,21,18.20
2013,07,31,10,22,18.10
2013,07,31,10,23,18.00
2013,07,31,10,24,17.90
2013,07,31,10,25,17.90
2013,07,31,10,26,17.90
2013,07,31,10,27,17.90
2013,07,31,10,28,17.90
2013,07,31,10,29,17.80
2013,07,31,10,30,17.80
2013,07,31,10,31,17.80
2013,07,31,10,32,17.80
2013,07,31,10,33,17.90
2013,07,31,10,34,17.90
2013,07,31,10,35,17.80
2013,07,31,10,36,17.70
2013,07,31,10,37,17.60
2013,07,31,10,38,17.50
2013,07,31,10,39,17.40
2013,07,31,10,40,17.40
2013,07,31,10,41,17.40
2013,07,31,10,42,17.40
2013,07,31,10,43,17.40
2013,07,31,10,44,17.40
2013,07,31,10,45,17.40
2013,07,31,10,46,17.40
2013,07,31,10,47,17.40
2013,07,31,10,48,17.40
2013,07,31,10,49,17.40
2013,07,31,10,50,17.50
2013,07,31,10,51,17.60
2013,07,31,10,52,17.60
2013,07,31,10,53,17.50
2013,07,31,10,54,17.50
2013,07,31,10,55,17.60
2013,07,31,10,56,17.50
2013,07,31,10,57,17.60
2013,07,31,10,58,17.60
2013,07,31,10,59,17.70
2013,07,31,11,00,17.80
2013,07,31,11,01,17.80
2013,07,31,11,02,17.80
2013,07,31,11,03,17.70
2013,07,31,11,04,17.60
2013,07,31,11,05,17.70
2013,07,31,11,06,17.70
2013,07,31,11,07,17.70
2013,07,31,11,08,17.70
2013,07,31,11,09,17.70
2013,07,31,11,10,17.70
2013,07,31,11,11,17.70
2013,07,31,11,12,17.80
2013,07,31,11,13,17.80
2013,07,31,11,14,17.80
2013,07,31,11,15,17.80
2013,07,31,11,16,17.80
2013,07,31,11,17,17.80
2013,07,31,11,18,17.90
2013,07,31,11,19,18.00
2013,07,31,11,20,18.00
2013,07,31,11,21,18.10
2013,07,31,11,22,18.10
2013,07,31,11,23,17.90
2013,07,31,11,24,17.80
2013,07,31,11,25,17.70
2013,07,31,11,26,17.70
2013,07,31,11,27,17.50
2013,07,31,11,28,17.30
2013,07,31,11,29,17.20
2013,07,31,11,30,17.20
2013,07,31,11,31,17.20
2013,07,31,11,32,17.00
2013,07,31,11,33,16.90
2013,07,31,11,34,16.80
2013,07,31,11,35,16.70
2013,07,31,11,36,16.70
2013,07,31,11,37,16.70
2013,07,31,11,38,16.80
2013,07,31,11,39,16.90
2013,07,31,11,40,16.90
2013,07,31,11,41,16.90
2013,07,31,11,42,16.90
2013,07,31,11,43,16.90
2013,07,31,11,44,17.00
2013,07,31,11,45,17.00
2013,07,31,11,46,17.00
2013,07,31,11,47,17.10
2013,07,31,11,48,17.20
2013,07,31,11,49,17.30
2013,07,31,11,50,17.40
2013,07,31,11,51,17.50
2013,07,31,11,52,17.50
2013,07,31,11,53,17.60
2013,07,31,11,54,17.60
2013,07,31,11,55,17.60
2013,07,31,11,56,17.70
2013,07,31,11,57,17.70
2013,07,31,11,58,17.90
2013,07,31,11,59,17.90
2013,07,31,12,00,18.10
2013,07,31,12,01,18.20
2013,07,31,12,02,18.40
2013,07,31,12,03,18.60
2013,07,31,12,04,18.80
2013,07,31,12,05,19.00
2013,07,31,12,06,19.10
2013,07,31,12,07,19.10
2013,07,31,12,08,19.00
2013,07,31,12,09,18.90
2013,07,31,12,10,18.90
2013,07,31,12,11,18.90
2013,07,31,12,12,18.90
2013,07,31,12,13,18.90
2013,07,31,12,14,18.80
2013,07,31,12,15,18.70
2013,07,31,12,16,18.50
2013,07,31,12,17,18.50
2013,07,31,12,18,18.50
2013,07,31,12,19,18.60
2013,07,31,12,20,18.60
2013,07,31,12,21,18.70
2013,07,31,12,22,18.90
2013,07,31,12,23,19.10
2013,07,31,12,24,19.40
2013,07,31,12,25,19.50
2013,07,31,12,26,19.60
2013,07,31,12,27,19.50
2013,07,31,12,28,19.40
2013,07,31,12,29,19.20
2013,07,31,12,30,19.00
2013,07,31,12,31,18.90
2013,07,31,12,32,18.80
2013,07,31,12,33,18.90
2013,07,31,12,34,19.00
2013,07,31,12,35,19.20
2013,07,31,12,36,19.30
2013,07,31,12,37,19.50
2013,07,31,12,38,19.50
2013,07,31,12,39,19.30
2013,07,31,12,40,19.20
2013,07,31,12,41,19.00
2013,07,31,12,42,18.90
2013,07,31,12,43,18.80
2013,07,31,12,44,18.90
2013,07,31,12,45,18.90
2013,07,31,12,46,19.10
2013,07,31,12,47,19.10
2013,07,31,12,48,19.20
2013,07,31,12,49,19.20
2013,07,31,12,50,19.30
2013,07,31,12,51,19.30
2013,07,31,12,52,19.30
2013,07,31,12,53,19.30
2013,07,31,12,54,19.40
2013,07,31,12,55,19.50
2013,07,31,12,56,19.60
2013,07,31,12,57,19.70
2013,07,31,12,58,19.70
2013,07,31,12,59,19.80
2013,07,31,13,00,19.70
2013,07,31,13,01,19.50
2013,07,31,13,02,19.40
2013,07,31,13,03,19.20
2013,07,31,13,04,19.00
2013,07,31,13,05,18.90
2013,07,31,13,06,18.90
2013,07,31,13,07,19.10
2013,07,31,13,08,19.10
2013,07,31,13,09,19.10
2013,07,31,13,10,19.10
2013,07,31,13,11,19.30
2013,07,31,13,12,19.30
2013,07,31,13,13,19.40
2013,07,31,13,14,19.50
2013,07,31,13,15,19.50
2013,07,31,13,16,19.50
2013,07,31,13,17,19.40
2013,07,31,13,18,19.40
2013,07,31,13,19,19.30
2013,07,31,13,20,19.30
2013,07,31,13,21,19.30
2013,07,31,13,22,19.30
2013,07,31,13,23,19.30
2013,07,31,13,24,19.40
2013,07,31,13,25,19.60
2013,07,31,13,26,19.70
2013,07,31,13,27,19.80
2013,07,31,13,28,19.90
2013,07,31,13,29,20.00
2013,07,31,13,30,20.10
2013,07,31,13,31,20.20
2013,07,31,13,32,20.20
2013,07,31,13,33,20.10
2013,07,31,13,34,20.10
2013,07,31,13,35,20.10
2013,07,31,13,36,20.00
2013,07,31,13,37,19.90
2013,07,31,13,38,19.90
2013,07,31,13,39,19.90
2013,07,31,13,40,19.80
2013,07,31,13,41,19.90
2013,07,31,13,42,19.90
2013,07,31,13,43,20.00
2013,07,31,13,44,20.10
2013,07,31,13,45,20.20
2013,07,31,13,46,20.10
2013,07,31,13,47,20.10
2013,07,31,13,48,20.10
2013,07,31,13,49,20.00
2013,07,31,13,50,19.90
2013,07,31,13,51,19.80
2013,07,31,13,52,19.80
2013,07,31,13,53,19.80
2013,07,31,13,54,19.70
2013,07,31,13,55,19.70
2013,07,31,13,56,19.60
2013,07,31,13,57,19.60
2013,07,31,13,58,19.90
2013,07,31,13,59,20.00
2013,07,31,14,00,20.10
2013,07,31,14,01,20.30
2013,07,31,14,02,20.40
2013,07,31,14,03,20.40
2013,07,31,14,04,20.50
2013,07,31,14,05,20.50
2013,07,31,14,06,20.60
2013,07,31,14,07,20.50
2013,07,31,14,08,20.50
2013,07,31,14,09,20.60
2013,07,31,14,10,20.60
2013,07,31,14,11,20.50
2013,07,31,14,12,20.70
2013,07,31,14,13,20.70
2013,07,31,14,14,20.70
2013,07,31,14,15,20.70
2013,07,31,14,16,20.70
2013,07,31,14,17,20.50
2013,07,31,14,18,20.40
2013,07,31,14,19,20.30
2013,07,31,14,20,20.20
2013,07,31,14,21,20.20
2013,07,31,14,22,20.20
2013,07,31,14,23,20.20
2013,07,31,14,24,20.20
2013,07,31,14,25,20.10
2013,07,31,14,26,20.20
2013,07,31,14,27,20.20
2013,07,31,14,28,20.20
2013,07,31,14,29,20.20
2013,07,31,14,30,20.20
2013,07,31,14,31,20.20
2013,07,31,14,32,20.10
2013,07,31,14,33,20.00
2013,07,31,14,34,19.90
2013,07,31,14,35,19.90
2013,07,31,14,36,20.00
2013,07,31,14,37,20.10
2013,07,31,14,38,20.20
2013,07,31,14,39,20.50
2013,07,31,14,40,20.60
2013,07,31,14,41,20.90
2013,07,31,14,42,21.10
2013,07,31,14,43,21.40
2013,07,31,14,44,21.60
2013,07,31,14,45,21.80
2013,07,31,14,46,21.80
2013,07,31,14,47,21.80
2013,07,31,14,48,21.70
2013,07,31,14,49,21.60
2013,07,31,14,50,21.50
2013,07,31,14,51,21.30
2013,07,31,14,52,21.10
2013,07,31,14,53,21.00
2013,07,31,14,54,20.90
2013,07,31,14,55,21.00
2013,07,31,14,56,21.00
2013,07,31,14,57,21.00
2013,07,31,14,58,21.00
2013,07,31,14,59,20.90
2013,07,31,15,00,20.80
2013,07,31,15,01,20.70
2013,07,31,15,02,20.60
2013,07,31,15,03,20.80
2013,07,31,15,04,20.90
2013,07,31,15,05,21.00
2013,07,31,15,06,20.90
2013,07,31,15,07,21.00
2013,07,31,15,08,21.00
2013,07,31,15,09,21.10
2013,07,31,15,10,21.20
2013,07,31,15,11,21.20
2013,07,31,15,12,21.10
2013,07,31,15,13,21.10
2013,07,31,15,14,21.10
2013,07,31,15,15,21.10
2013,07,31,15,16,21.10
2013,07,31,15,17,21.10
2013,07,31,15,18,21.20
2013,07,31,15,19,21.30
2013,07,31,15,20,21.30
2013,07,31,15,21,21.20
2013,07,31,15,22,21.10
2013,07,31,15,23,21.00
2013,07,31,15,24,21.10
2013,07,31,15,25,21.30
2013,07,31,15,26,21.40
2013,07,31,15,27,21.50
2013,07,31,15,28,21.60
2013,07,31,15,29,21.70
2013,07,31,15,30,21.90
2013,07,31,15,31,22.00
2013,07,31,15,32,22.10
2013,07,31,15,33,22.20
2013,07,31,15,34,22.30
2013,07,31,15,35,22.50
2013,07,31,15,36,22.50
2013,07,31,15,37,22.50
2013,07,31,15,38,22.50
2013,07,31,15,39,22.50
2013,07,31,15,40,22.50
2013,07,31,15,41,22.50
2013,07,31,15,42,22.60
2013,07,31,15,43,22.70
2013,07,31,15,44,22.80
2013,07,31,15,45,22.90
2013,07,31,15,46,23.00
2013,07,31,15,47,22.90
2013,07,31,15,48,22.90
2013,07,31,15,49,22.90
2013,07,31,15,50,22.90
2013,07,31,15,51,22.90
2013,07,31,15,52,23.00
2013,07,31,15,53,23.10
2013,07,31,15,54,23.10
2013,07,31,15,55,23.20
2013,07,31,15,56,23.30
2013,07,31,15,57,23.30
2013,07,31,15,58,23.40
2013,07,31,15,59,23.40
2013,07,31,16,00,23.30
2013,07,31,16,01,23.30
2013,07,31,16,02,23.30
2013,07,31,16,03,23.30
2013,07,31,16,04,23.30
2013,07,31,16,05,23.10
2013,07,31,16,06,23.00
2013,07,31,16,07,22.90
2013,07,31,16,08,22.90
2013,07,31,16,09,22.80
2013,07,31,16,10,22.80
2013,07,31,16,11,22.90
2013,07,31,16,12,23.00
2013,07,31,16,13,23.10
2013,07,31,16,14,23.10
2013,07,31,16,15,23.20
2013,07,31,16,16,23.10
2013,07,31,16,17,23.10
2013,07,31,16,18,23.10
2013,07,31,16,19,23.10
2013,07,31,16,20,23.00
2013,07,31,16,21,22.90
2013,07,31,16,22,22.90
2013,07,31,16,23,22.90
2013,07,31,16,24,22.90
2013,07,31,16,25,22.90
2013,07,31,16,26,22.80
2013,07,31,16,27,22.70
2013,07,31,16,28,22.70
2013,07,31,16,29,22.80
2013,07,31,16,30,22.80
2013,07,31,16,31,22.80
2013,07,31,16,32,22.80
2013,07,31,16,33,22.80
2013,07,31,16,34,22.90
2013,07,31,16,35,22.90
2013,07,31,16,36,22.90
2013,07,31,16,37,22.90
2013,07,31,16,38,23.10
2013,07,31,16,39,23.30
2013,07,31,16,40,23.30
2013,07,31,16,41,23.40
2013,07,31,16,42,23.50
2013,07,31,16,43,23.60
2013,07,31,16,44,23.70
2013,07,31,16,45,23.70
2013,07,31,16,46,23.70
2013,07,31,16,47,23.70
2013,07,31,16,48,23.60
2013,07,31,16,49,23.60
2013,07,31,16,50,23.60
2013,07,31,16,51,23.50
2013,07,31,16,52,23.50
2013,07,31,16,53,23.40
2013,07,31,16,54,23.50
2013,07,31,16,55,23.60
2013,07,31,16,56,23.60
2013,07,31,16,57,23.70
2013,07,31,16,58,23.70
2013,07,31,16,59,23.70
2013,07,31,17,00,23.70
2013,07,31,17,01,23.60
2013,07,31,17,02,23.50
2013,07,31,17,03,23.40
2013,07,31,17,04,23.40
2013,07,31,17,05,23.40
2013,07,31,17,06,23.50
2013,07,31,17,07,23.60
2013,07,31,17,08,23.60
2013,07,31,17,09,23.60
2013,07,31,17,10,23.50
2013,07,31,17,11,23.40
2013,07,31,17,12,23.30
2013,07,31,17,13,23.30
2013,07,31,17,14,23.30
2013,07,31,17,15,23.30
2013,07,31,17,16,23.30
2013,07,31,17,17,23.30
2013,07,31,17,18,23.40
2013,07,31,17,19,23.40
2013,07,31,17,20,23.40
2013,07,31,17,21,23.50
2013,07,31,17,22,23.60
2013,07,31,17,23,23.60
2013,07,31,17,24,23.60
2013,07,31,17,25,23.60
2013,07,31,17,26,23.70
2013,07,31,17,27,23.80
2013,07,31,17,28,24.00
2013,07,31,17,29,24.10
2013,07,31,17,30,24.20
2013,07,31,17,31,24.30
2013,07,31,17,32,24.30
2013,07,31,17,33,24.40
2013,07,31,17,34,24.40
2013,07,31,17,35,24.40
2013,07,31,17,36,24.30
2013,07,31,17,37,24.20
2013,07,31,17,38,24.10
2013,07,31,17,39,24.00
2013,07,31,17,40,23.90
2013,07,31,17,41,23.80
2013,07,31,17,42,23.80
2013,07,31,17,43,23.80
2013,07,31,17,44,23.80
2013,07,31,17,45,23.80
2013,07,31,17,46,23.70
2013,07,31,17,47,23.70
2013,07,31,17,48,23.30
2013,07,31,17,49,23.30
2013,07,31,17,50,23.20
2013,07,31,17,51,23.10
2013,07,31,17,52,23.10
2013,07,31,17,53,23.00
2013,07,31,17,54,22.90
2013,07,31,17,55,22.90
2013,07,31,17,56,23.00
2013,07,31,17,57,23.10
2013,07,31,17,58,23.10
2013,07,31,17,59,23.10
2013,07,31,18,00,23.10
2013,07,31,18,01,23.00
2013,07,31,18,02,22.90
2013,07,31,18,03,22.80
2013,07,31,18,04,22.70
2013,07,31,18,05,22.60
2013,07,31,18,06,22.50
2013,07,31,18,07,22.40
2013,07,31,18,08,22.30
2013,07,31,18,09,22.20
2013,07,31,18,10,22.20
2013,07,31,18,11,22.10
2013,07,31,18,12,22.10
2013,07,31,18,13,22.10
2013,07,31,18,14,22.10
2013,07,31,18,15,22.10
2013,07,31,18,16,22.00
2013,07,31,18,17,22.00
2013,07,31,18,18,21.90
2013,07,31,18,19,21.80
2013,07,31,18,20,21.80
2013,07,31,18,21,21.80
2013,07,31,18,22,21.70
2013,07,31,18,23,21.70
2013,07,31,18,24,21.70
2013,07,31,18,25,21.70
2013,07,31,18,26,21.70
2013,07,31,18,27,21.60
2013,07,31,18,28,21.60
2013,07,31,18,29,21.60
2013,07,31,18,30,21.60
2013,07,31,18,31,21.60
2013,07,31,18,32,21.60
2013,07,31,18,33,21.60
2013,07,31,18,34,21.50
2013,07,31,18,35,21.40
2013,07,31,18,36,21.40
2013,07,31,18,37,21.40
2013,07,31,18,38,21.40
2013,07,31,18,39,21.40
2013,07,31,18,40,21.30
2013,07,31,18,41,21.30
2013,07,31,18,42,21.30
2013,07,31,18,43,21.30
2013,07,31,18,44,21.30
2013,07,31,18,45,21.30
2013,07,31,18,46,21.30
2013,07,31,18,47,21.20
2013,07,31,18,48,21.20
2013,07,31,18,49,21.10
2013,07,31,18,50,21.10
2013,07,31,18,51,21.00
2013,07,31,18,52,21.00
2013,07,31,18,53,20.90
2013,07,31,18,54,20.90
2013,07,31,18,55,20.80
2013,07,31,18,56,20.80
2013,07,31,18,57,20.80
2013,07,31,18,58,20.80
2013,07,31,18,59,20.80
2013,07,31,19,00,20.80
2013,07,31,19,01,20.80
2013,07,31,19,02,20.80
2013,07,31,19,03,20.80
2013,07,31,19,04,20.80
2013,07,31,19,05,20.80
2013,07,31,19,06,20.80
2013,07,31,19,07,20.70
2013,07,31,19,08,20.70
2013,07,31,19,09,20.70
2013,07,31,19,10,20.60
2013,07,31,19,11,20.60
2013,07,31,19,12,20.60
2013,07,31,19,13,20.60
2013,07,31,19,14,20.60
2013,07,31,19,15,20.60
2013,07,31,19,16,20.60
2013,07,31,19,17,20.60
2013,07,31,19,18,20.60
2013,07,31,19,19,20.60
2013,07,31,19,20,20.60
2013,07,31,19,21,20.60
2013,07,31,19,22,20.60
2013,07,31,19,23,20.60
2013,07,31,19,24,20.60
2013,07,31,19,25,20.60
2013,07,31,19,26,20.60
